| time (UTC) | temp C | wind direction | speed KPH | gust KPH | rain 1hr cm | rain 24hr cm | rain mn cm | humidity % | barometer mb |
| 20260906060611 | 21 | 219 | 0.0 | 0.0 | 0.00 | 0.00 | 0.00 | 99 | 1010.5 |
| 20260906060108 | 21 | 219 | 0.0 | 0.0 | 0.00 | 0.00 | 0.00 | 99 | 1010.8 |
| 20260906055603 | 21 | 219 | 0.0 | 0.0 | 0.00 | 0.00 | 0.00 | 99 | 1010.7 |
| 20260906055058 | 21 | 219 | 0.0 | 0.0 | 0.00 | 0.00 | 0.00 | 99 | 1010.7 |
| 20260906054558 | 21 | 219 | 0.0 | 0.0 | 0.00 | 0.00 | 0.00 | 99 | 1011.1 |
| 20260906054054 | 21 | 219 | 0.0 | 0.0 | 0.00 | 0.00 | 0.00 | 99 | 1010.8 |
| 20260906053550 | 21 | 219 | 0.0 | 0.0 | 0.00 | 0.00 | 0.00 | 99 | 1010.7 |
| 20260906053045 | 21 | 219 | 0.0 | 0.0 | 0.00 | 0.00 | 0.00 | 99 | 1010.7 |
| 20260906052541 | 21 | 219 | 0.0 | 0.0 | 0.00 | 0.00 | 0.00 | 99 | 1011.0 |
| 20260906052038 | 21 | 219 | 0.0 | 0.0 | 0.00 | 0.00 | 0.00 | 99 | 1011.1 |
| 20260906051533 | 21 | 219 | 0.0 | 0.0 | 0.00 | 0.00 | 0.00 | 99 | 1011.0 |
| 20260906051028 | 21 | 219 | 0.0 | 0.0 | 0.00 | 0.00 | 0.00 | 99 | 1010.8 |
| 20260906050523 | 21 | 218 | 0.0 | 0.0 | 0.00 | 0.00 | 0.00 | 99 | 1010.9 |
| 20260906050018 | 21 | 218 | 0.0 | 0.0 | 0.00 | 0.00 | 0.00 | 99 | 1010.9 |
| 20260906045516 | 21 | 220 | 0.0 | 0.0 | 0.00 | 0.00 | 0.00 | 99 | 1011.0 |
| 20260906045012 | 21 | 220 | 0.0 | 0.0 | 0.00 | 0.00 | 0.00 | 99 | 1011.0 |
| 20260906044508 | 21 | 220 | 0.0 | 0.0 | 0.00 | 0.00 | 0.00 | 99 | 1011.1 |
| 20260906044003 | 21 | 220 | 0.0 | 0.0 | 0.00 | 0.00 | 0.00 | 99 | 1011.1 |
| 20260906043459 | 21 | 220 | 0.0 | 0.0 | 0.00 | 0.00 | 0.00 | 99 | 1011.3 |
| 20260906042955 | 21 | 220 | 0.0 | 0.0 | 0.00 | 0.00 | 0.00 | 99 | 1011.1 |
| 20260906042453 | 21 | 220 | 0.0 | 0.0 | 0.00 | 0.00 | 0.00 | 99 | 1010.9 |
| 20260906041953 | 21 | 220 | 0.0 | 0.0 | 0.00 | 0.00 | 0.00 | 99 | 1011.2 |
| 20260906041450 | 21 | 220 | 0.0 | 0.0 | 0.00 | 0.00 | 0.00 | 99 | 1011.0 |
| 20260906040949 | 21 | 220 | 0.0 | 0.0 | 0.00 | 0.00 | 0.00 | 99 | 1011.1 |
| 20260906040444 | 21 | 220 | 0.0 | 0.0 | 0.00 | 0.00 | 0.00 | 99 | 1011.3 |
| 20260906035939 | 21 | 220 | 0.0 | 0.0 | 0.00 | 1.02 | 1.02 | 99 | 1011.2 |
| 20260906035435 | 21 | 220 | 0.0 | 0.0 | 0.00 | 1.02 | 1.02 | 99 | 1011.5 |
| 20260906034930 | 21 | 220 | 0.0 | 0.0 | 0.00 | 1.02 | 1.02 | 99 | 1011.4 |
| 20260906034425 | 21 | 220 | 0.0 | 0.0 | 0.00 | 1.02 | 1.02 | 99 | 1011.3 |
| 20260906033920 | 21 | 220 | 0.0 | 0.0 | 0.00 | 1.02 | 1.02 | 98 | 1011.5 |
| 20260906033415 | 21 | 220 | 0.0 | 0.0 | 0.00 | 1.02 | 1.02 | 98 | 1011.3 |
| 20260906032910 | 21 | 220 | 0.0 | 0.0 | 0.00 | 1.02 | 1.02 | 98 | 1011.4 |
| 20260906032407 | 21 | 220 | 0.0 | 0.0 | 0.00 | 1.02 | 1.02 | 98 | 1011.4 |
| 20260906031901 | 21 | 220 | 0.0 | 0.0 | 0.00 | 1.02 | 1.02 | 98 | 1011.5 |
| 20260906031356 | 21 | 220 | 0.0 | 0.0 | 0.00 | 1.02 | 1.02 | 98 | 1011.5 |
| 20260906030851 | 21 | 214 | 0.0 | 0.0 | 0.00 | 1.02 | 1.02 | 98 | 1011.5 |
| 20260906030346 | 21 | 214 | 0.0 | 0.0 | 0.00 | 1.02 | 1.02 | 98 | 1011.5 |
| 20260906025841 | 21 | 214 | 0.0 | 0.0 | 0.00 | 1.02 | 1.02 | 98 | 1011.6 |
| 20260906025335 | 21 | 214 | 0.0 | 0.0 | 0.00 | 1.02 | 1.02 | 98 | 1011.3 |
| 20260906024834 | 21 | 214 | 0.0 | 0.0 | 0.00 | 1.02 | 1.02 | 98 | 1011.4 |
| 20260906024333 | 21 | 214 | 0.0 | 0.0 | 0.00 | 1.02 | 1.02 | 98 | 1011.4 |
| 20260906023829 | 21 | 214 | 0.0 | 0.0 | 0.00 | 1.02 | 1.02 | 98 | 1011.1 |
| 20260906023325 | 21 | 214 | 0.0 | 0.0 | 0.00 | 1.02 | 1.02 | 98 | 1011.0 |
| 20260906022820 | 21 | 214 | 0.0 | 0.0 | 0.00 | 1.02 | 1.02 | 98 | 1011.1 |
| 20260906022315 | 22 | 214 | 0.0 | 0.0 | 0.00 | 1.02 | 1.02 | 98 | 1011.0 |
| 20260906021811 | 22 | 214 | 0.0 | 0.0 | 0.00 | 1.02 | 1.02 | 98 | 1011.0 |
| 20260906021310 | 22 | 214 | 0.0 | 0.0 | 0.00 | 1.02 | 1.02 | 98 | 1011.0 |
| 20260906020804 | 22 | 214 | 0.0 | 0.0 | 0.00 | 1.02 | 1.02 | 98 | 1011.1 |
| 20260906020304 | 22 | 214 | 0.0 | 0.0 | 0.00 | 1.02 | 1.02 | 98 | 1011.2 |
| 20260906015759 | 22 | 214 | 0.0 | 0.0 | 0.00 | 1.02 | 1.02 | 98 | 1011.0 |
| 20260906015257 | 22 | 214 | 0.0 | 0.0 | 0.00 | 1.02 | 1.02 | 98 | 1011.1 |
| 20260906014752 | 22 | 214 | 0.0 | 0.0 | 0.00 | 1.02 | 1.02 | 98 | 1010.8 |
| 20260906014248 | 22 | 214 | 0.0 | 0.0 | 0.00 | 1.02 | 1.02 | 98 | 1010.9 |
| 20260906013744 | 22 | 214 | 0.0 | 0.0 | 0.00 | 1.02 | 1.02 | 98 | 1010.9 |
| 20260906013243 | 22 | 214 | 0.0 | 0.0 | 0.00 | 1.02 | 1.02 | 98 | 1011.0 |
| 20260906012739 | 22 | 214 | 0.0 | 0.0 | 0.00 | 1.02 | 1.02 | 98 | 1011.0 |
| 20260906012234 | 22 | 214 | 0.0 | 0.0 | 0.00 | 1.02 | 1.02 | 98 | 1010.7 |
| 20260906011729 | 22 | 214 | 0.0 | 0.0 | 0.00 | 1.02 | 1.02 | 98 | 1010.7 |
| 20260906011228 | 22 | 214 | 0.0 | 0.0 | 0.00 | 1.02 | 1.02 | 98 | 1010.7 |
| 20260906010724 | 22 | 214 | 0.0 | 0.0 | 0.00 | 1.02 | 1.02 | 98 | 1010.8 |
| 20260906010221 | 22 | 214 | 0.0 | 0.0 | 0.00 | 1.02 | 1.02 | 98 | 1010.9 |
| 20260906005721 | 22 | 214 | 0.0 | 0.0 | 0.00 | 1.02 | 1.02 | 97 | 1011.0 |
| 20260906005214 | 22 | 214 | 0.0 | 0.0 | 0.00 | 1.02 | 1.02 | 97 | 1011.3 |
| 20260906004713 | 22 | 214 | 0.0 | 0.0 | 0.00 | 1.02 | 1.02 | 97 | 1010.9 |
| 20260906004203 | 22 | 214 | 0.0 | 0.0 | 0.00 | 1.02 | 1.02 | 97 | 1010.9 |
| 20260906003658 | 22 | 214 | 0.0 | 0.0 | 0.00 | 1.02 | 1.02 | 97 | 1010.7 |
| 20260906003154 | 22 | 214 | 0.0 | 0.0 | 0.00 | 1.02 | 1.02 | 97 | 1010.7 |
| 20260906002654 | 22 | 214 | 0.0 | 0.0 | 0.00 | 1.02 | 1.02 | 97 | 1010.7 |
| 20260906002148 | 22 | 214 | 0.0 | 0.0 | 0.00 | 1.02 | 1.02 | 97 | 1010.7 |
| 20260906001644 | 22 | 214 | 0.0 | 0.0 | 0.00 | 1.02 | 1.02 | 97 | 1010.8 |
| 20260906001143 | 22 | 214 | 0.0 | 0.0 | 0.00 | 1.02 | 1.02 | 96 | 1011.0 |
| 20260906000639 | 22 | 214 | 0.0 | 0.0 | 0.00 | 1.02 | 1.02 | 96 | 1010.6 |
| 20260906000135 | 22 | 212 | 0.0 | 0.0 | 0.00 | 1.02 | 1.02 | 96 | 1010.7 |
| 20260905235633 | 22 | 221 | 0.0 | 0.0 | 0.00 | 1.02 | 1.02 | 96 | 1010.8 |
| 20260905235129 | 22 | 218 | 0.0 | 0.0 | 0.00 | 1.02 | 1.02 | 96 | 1010.5 |
| 20260905234624 | 22 | 218 | 0.0 | 0.0 | 0.00 | 1.02 | 1.02 | 95 | 1010.5 |
| 20260905234120 | 22 | 218 | 0.0 | 0.0 | 0.00 | 1.02 | 1.02 | 95 | 1010.2 |
| 20260905233614 | 22 | 218 | 0.0 | 0.0 | 0.00 | 1.02 | 1.02 | 95 | 1010.3 |
| 20260905233108 | 22 | 218 | 0.0 | 0.0 | 0.00 | 1.02 | 1.02 | 94 | 1010.1 |
| 20260905232604 | 22 | 218 | 0.0 | 0.0 | 0.00 | 1.02 | 1.02 | 93 | 1010.3 |
| 20260905232100 | 23 | 218 | 0.0 | 0.0 | 0.00 | 1.02 | 1.02 | 93 | 1009.8 |
| 20260905231554 | 23 | 222 | 0.0 | 0.0 | 0.00 | 1.02 | 1.02 | 93 | 1009.7 |
| 20260905231051 | 23 | 219 | 0.0 | 0.0 | 0.00 | 1.02 | 1.02 | 93 | 1009.6 |
| 20260905230551 | 22 | 218 | 0.0 | 0.0 | 0.00 | 1.02 | 1.02 | 94 | 1009.8 |
| 20260905230049 | 22 | 222 | 0.0 | 0.0 | 0.00 | 1.02 | 1.02 | 94 | 1009.6 |
| 20260905225548 | 22 | 221 | 0.0 | 0.0 | 0.00 | 1.02 | 1.02 | 93 | 1009.4 |
| 20260905225043 | 23 | 221 | 0.0 | 0.0 | 0.00 | 1.02 | 1.02 | 92 | 1009.6 |
| 20260905224538 | 23 | 218 | 0.0 | 0.0 | 0.00 | 1.02 | 1.02 | 91 | 1009.6 |
| 20260905224037 | 23 | 211 | 0.0 | 0.0 | 0.00 | 1.02 | 1.02 | 92 | 1009.3 |
| 20260905223535 | 23 | 215 | 0.0 | 0.0 | 0.00 | 1.02 | 1.02 | 89 | 1009.6 |
| 20260905223031 | 23 | 219 | 0.0 | 0.0 | 0.00 | 1.02 | 1.02 | 87 | 1009.4 |
| 20260905222531 | 23 | 221 | 0.0 | 0.0 | 0.00 | 1.02 | 1.02 | 88 | 1009.6 |
| 20260905222026 | 23 | 220 | 0.0 | 0.0 | 0.00 | 1.02 | 1.02 | 87 | 1009.3 |
| 20260905221522 | 23 | 216 | 0.0 | 0.0 | 0.00 | 1.02 | 1.02 | 86 | 1009.4 |
| 20260905221018 | 23 | 228 | 0.0 | 0.0 | 0.00 | 1.02 | 1.02 | 89 | 1009.6 |
| 20260905220514 | 23 | 222 | 0.0 | 0.0 | 0.00 | 1.02 | 1.02 | 90 | 1009.4 |
| 20260905220009 | 23 | 220 | 0.0 | 0.0 | 0.00 | 1.02 | 1.02 | 92 | 1009.5 |
| 20260905215504 | 23 | 216 | 0.0 | 0.0 | 0.00 | 1.02 | 1.02 | 90 | 1009.3 |
| 20260905214959 | 23 | 216 | 0.0 | 0.0 | 0.00 | 1.02 | 1.02 | 94 | 1009.5 |
| 20260905214450 | 23 | 256 | 0.0 | 0.0 | 0.00 | 1.02 | 1.02 | 95 | 1009.3 |
| 20260905213950 | 23 | 225 | 0.0 | 0.0 | 0.00 | 1.02 | 1.02 | 97 | 1009.4 |
| 20260905213446 | 23 | 221 | 0.0 | 0.0 | 0.00 | 1.02 | 1.02 | 97 | 1009.2 |
| 20260905212941 | 23 | 214 | 0.0 | 0.0 | 0.00 | 1.02 | 1.02 | 98 | 1009.4 |
| 20260905212436 | 23 | 222 | 0.0 | 0.0 | 0.00 | 1.02 | 1.02 | 98 | 1009.4 |
| 20260905211935 | 23 | 216 | 0.0 | 0.0 | 0.00 | 1.02 | 1.02 | 97 | 1009.6 |
| 20260905211431 | 23 | 216 | 0.0 | 0.0 | 0.00 | 1.02 | 1.02 | 98 | 1009.8 |
| 20260905210927 | 22 | 215 | 0.0 | 0.0 | 0.00 | 1.02 | 1.02 | 98 | 1010.3 |
| 20260905210427 | 22 | 215 | 0.0 | 0.0 | 0.00 | 1.02 | 1.02 | 98 | 1010.5 |
| 20260905205926 | 22 | 220 | 0.0 | 0.0 | 0.13 | 1.02 | 1.02 | 97 | 1010.3 |
| 20260905205421 | 22 | 219 | 0.0 | 0.0 | 0.30 | 1.02 | 1.02 | 97 | 1010.4 |
| 20260905204920 | 21 | 218 | 0.0 | 0.0 | 0.30 | 0.99 | 0.99 | 97 | 1010.9 |
| 20260905204417 | 21 | 211 | 0.0 | 0.0 | 0.66 | 0.99 | 0.99 | 97 | 1011.1 |
| 20260905203915 | 21 | 215 | 0.0 | 0.0 | 0.48 | 0.94 | 0.94 | 97 | 1010.9 |
| 20260905203411 | 21 | 216 | 0.0 | 0.0 | 0.13 | 0.89 | 0.89 | 97 | 1010.9 |
| 20260905202906 | 21 | 218 | 0.0 | 0.0 | 0.00 | 0.86 | 0.86 | 97 | 1011.2 |
| 20260905202401 | 21 | 216 | 0.0 | 0.0 | 0.00 | 0.86 | 0.86 | 96 | 1011.1 |
| 20260905201856 | 21 | 219 | 0.0 | 0.0 | 0.00 | 0.86 | 0.86 | 96 | 1011.0 |
| 20260905201352 | 21 | 218 | 0.0 | 0.0 | 0.00 | 0.86 | 0.86 | 96 | 1010.9 |
| 20260905200851 | 21 | 221 | 0.0 | 0.0 | 0.00 | 0.86 | 0.86 | 96 | 1010.6 |
| 20260905200348 | 21 | 202 | 0.0 | 0.0 | 0.18 | 0.86 | 0.86 | 95 | 1010.4 |
| 20260905195846 | 20 | 219 | 0.0 | 0.0 | 0.18 | 0.86 | 0.86 | 94 | 1010.5 |
| 20260905195341 | 21 | 198 | 0.0 | 0.0 | 1.50 | 0.84 | 0.84 | 94 | 1010.5 |
| 20260905194837 | 21 | 214 | 0.0 | 0.0 | 4.55 | 0.84 | 0.84 | 91 | 1010.5 |
| 20260905194336 | 22 | 304 | 0.0 | 0.0 | 4.09 | 0.69 | 0.69 | 83 | 1011.3 |
| 20260905193836 | 28 | 254 | 0.0 | 0.0 | 0.89 | 0.15 | 0.15 | 65 | 1012.3 |
| 20260905193330 | 31 | 202 | 0.0 | 0.0 | 0.00 | 0.00 | 0.00 | 59 | 1010.7 |
| 20260905192827 | 31 | 209 | 0.0 | 0.0 | 0.00 | 0.00 | 0.00 | 64 | 1010.4 |
| 20260905192322 | 32 | 214 | 0.0 | 0.0 | 0.00 | 0.00 | 0.00 | 62 | 1010.1 |
| 20260905191821 | 32 | 214 | 0.0 | 0.0 | 0.00 | 0.00 | 0.00 | 61 | 1010.1 |
| 20260905191320 | 33 | 216 | 0.0 | 0.0 | 0.00 | 0.00 | 0.00 | 58 | 1010.0 |
| 20260905190819 | 33 | 227 | 0.0 | 0.0 | 0.00 | 0.00 | 0.00 | 53 | 1009.6 |
| 20260905190313 | 33 | 227 | 0.0 | 0.0 | 0.00 | 0.00 | 0.00 | 53 | 1009.6 |
| 20260905185812 | 33 | 225 | 0.0 | 0.0 | 0.00 | 0.00 | 0.00 | 52 | 1009.8 |
| 20260905185307 | 33 | 240 | 0.0 | 0.0 | 0.00 | 0.00 | 0.00 | 53 | 1009.8 |
| 20260905184800 | 33 | 221 | 0.0 | 0.0 | 0.00 | 0.00 | 0.00 | 52 | 1010.0 |
| 20260905184254 | 33 | 223 | 0.0 | 0.0 | 0.00 | 0.00 | 0.00 | 52 | 1010.2 |
| 20260905183753 | 34 | 223 | 0.0 | 0.0 | 0.00 | 0.00 | 0.00 | 51 | 1010.0 |
| 20260905183248 | 35 | 222 | 0.0 | 0.0 | 0.00 | 0.00 | 0.00 | 49 | 1009.8 |
| 20260905182748 | 35 | 215 | 0.0 | 0.0 | 0.00 | 0.00 | 0.00 | 47 | 1010.1 |
| 20260905182242 | 35 | 214 | 0.0 | 0.0 | 0.00 | 0.00 | 0.00 | 48 | 1010.2 |
| 20260905181737 | 36 | 227 | 0.0 | 0.0 | 0.00 | 0.00 | 0.00 | 45 | 1010.2 |
| 20260905181236 | 37 | 230 | 0.0 | 0.0 | 0.00 | 0.00 | 0.00 | 43 | 1010.5 |
| 20260905180731 | 36 | 215 | 0.0 | 0.0 | 0.00 | 0.00 | 0.00 | 46 | 1010.6 |
| 20260905180226 | 36 | 230 | 0.0 | 0.0 | 0.00 | 0.00 | 0.00 | 45 | 1010.6 |
| 20260905175721 | 35 | 249 | 0.0 | 0.0 | 0.00 | 0.00 | 0.00 | 45 | 1010.6 |
| 20260905175215 | 36 | 243 | 0.0 | 0.0 | 0.00 | 0.00 | 0.00 | 46 | 1010.8 |
| 20260905174711 | 35 | 229 | 0.0 | 0.0 | 0.00 | 0.00 | 0.00 | 47 | 1010.9 |
| 20260905174206 | 34 | 231 | 0.0 | 0.0 | 0.00 | 0.00 | 0.00 | 48 | 1010.9 |
| 20260905173703 | 34 | 230 | 0.0 | 0.0 | 0.00 | 0.00 | 0.00 | 48 | 1011.2 |
| 20260905173158 | 35 | 234 | 0.0 | 0.0 | 0.00 | 0.00 | 0.00 | 47 | 1011.3 |
| 20260905172657 | 34 | 229 | 0.0 | 0.0 | 0.00 | 0.00 | 0.00 | 51 | 1011.4 |
| 20260905172151 | 35 | 233 | 0.0 | 0.0 | 0.00 | 0.00 | 0.00 | 53 | 1011.4 |
| 20260905171647 | 35 | 220 | 0.0 | 0.0 | 0.00 | 0.00 | 0.00 | 53 | 1011.5 |
| 20260905171143 | 35 | 228 | 0.0 | 0.0 | 0.00 | 0.00 | 0.00 | 54 | 1011.7 |
| 20260905170640 | 34 | 221 | 0.0 | 0.0 | 0.00 | 0.00 | 0.00 | 56 | 1011.7 |
| 20260905170135 | 34 | 211 | 0.0 | 0.0 | 0.00 | 0.00 | 0.00 | 57 | 1011.8 |
| 20260905165635 | 33 | 230 | 0.0 | 0.0 | 0.00 | 0.00 | 0.00 | 58 | 1011.6 |
| 20260905165130 | 33 | 224 | 0.0 | 0.0 | 0.00 | 0.00 | 0.00 | 58 | 1011.8 |
| 20260905164625 | 33 | 225 | 0.0 | 0.0 | 0.00 | 0.00 | 0.00 | 56 | 1011.9 |
| 20260905164124 | 33 | 225 | 0.0 | 0.0 | 0.00 | 0.00 | 0.00 | 58 | 1011.9 |
| 20260905163621 | 33 | 222 | 0.0 | 0.0 | 0.00 | 0.00 | 0.00 | 59 | 1012.2 |
| 20260905163117 | 32 | 215 | 0.0 | 0.0 | 0.00 | 0.00 | 0.00 | 61 | 1012.2 |
| 20260905162613 | 32 | 211 | 0.0 | 0.0 | 0.00 | 0.00 | 0.00 | 61 | 1012.2 |
| 20260905162112 | 32 | 172 | 0.0 | 0.0 | 0.00 | 0.00 | 0.00 | 63 | 1012.4 |
| 20260905161611 | 32 | 214 | 0.0 | 0.0 | 0.00 | 0.00 | 0.00 | 64 | 1012.3 |
| 20260905161109 | 32 | 201 | 0.0 | 0.0 | 0.00 | 0.00 | 0.00 | 65 | 1012.4 |
| 20260905160609 | 32 | 226 | 0.0 | 0.0 | 0.00 | 0.00 | 0.00 | 65 | 1012.3 |
| 20260905155557 | 31 | 212 | 0.0 | 0.0 | 0.00 | 0.00 | 0.00 | 67 | 1012.5 |
| 20260905155056 | 31 | 216 | 0.0 | 0.0 | 0.00 | 0.00 | 0.00 | 67 | 1012.5 |
| 20260905154551 | 31 | 249 | 0.0 | 0.0 | 0.00 | 0.00 | 0.00 | 67 | 1012.4 |
| 20260905154047 | 31 | 224 | 0.0 | 0.0 | 0.00 | 0.00 | 0.00 | 69 | 1012.4 |
| 20260905153543 | 31 | 220 | 0.0 | 0.0 | 0.00 | 0.00 | 0.00 | 69 | 1012.5 |
| 20260905153043 | 30 | 206 | 0.0 | 0.0 | 0.00 | 0.00 | 0.00 | 69 | 1012.7 |
| 20260905152537 | 30 | 227 | 0.0 | 0.0 | 0.00 | 0.00 | 0.00 | 69 | 1012.7 |
| 20260905152032 | 30 | 225 | 0.0 | 0.0 | 0.00 | 0.00 | 0.00 | 71 | 1012.6 |
| 20260905151527 | 30 | 215 | 0.0 | 0.0 | 0.00 | 0.00 | 0.00 | 72 | 1012.6 |
| 20260905151023 | 30 | 240 | 0.0 | 0.0 | 0.00 | 0.00 | 0.00 | 72 | 1012.5 |
| 20260905150518 | 30 | 224 | 0.0 | 0.0 | 0.00 | 0.00 | 0.00 | 71 | 1012.6 |
| 20260905150016 | 30 | 205 | 0.0 | 0.0 | 0.00 | 0.00 | 0.00 | 73 | 1012.6 |
| 20260905145509 | 29 | 234 | 0.0 | 0.0 | 0.00 | 0.00 | 0.00 | 74 | 1012.5 |
| 20260905145009 | 29 | 233 | 0.0 | 0.0 | 0.00 | 0.00 | 0.00 | 75 | 1012.7 |
| 20260905144504 | 29 | 283 | 0.0 | 0.0 | 0.00 | 0.00 | 0.00 | 75 | 1012.3 |
| 20260905144003 | 28 | 224 | 0.0 | 0.0 | 0.00 | 0.00 | 0.00 | 75 | 1012.6 |
| 20260905143502 | 28 | 218 | 0.0 | 0.0 | 0.00 | 0.00 | 0.00 | 75 | 1012.6 |
| 20260905142957 | 28 | 221 | 0.0 | 0.0 | 0.00 | 0.00 | 0.00 | 76 | 1012.7 |
| 20260905142455 | 28 | 180 | 0.0 | 0.0 | 0.00 | 0.00 | 0.00 | 78 | 1012.9 |
| 20260905141951 | 28 | 219 | 0.0 | 0.0 | 0.00 | 0.00 | 0.00 | 77 | 1012.8 |
| 20260905141446 | 28 | 213 | 0.0 | 0.0 | 0.00 | 0.00 | 0.00 | 79 | 1012.9 |
| 20260905140942 | 28 | 213 | 0.0 | 0.0 | 0.00 | 0.00 | 0.00 | 78 | 1012.8 |
| 20260905140437 | 27 | 277 | 0.0 | 0.0 | 0.00 | 0.00 | 0.00 | 78 | 1012.7 |
| 20260905135936 | 27 | 213 | 0.0 | 0.0 | 0.00 | 0.00 | 0.00 | 78 | 1012.9 |
| 20260905135432 | 27 | 214 | 0.0 | 0.0 | 0.00 | 0.00 | 0.00 | 79 | 1012.8 |
| 20260905134927 | 27 | 214 | 0.0 | 0.0 | 0.00 | 0.00 | 0.00 | 79 | 1013.0 |
| 20260905134426 | 27 | 220 | 0.0 | 0.0 | 0.00 | 0.00 | 0.00 | 80 | 1012.9 |
| 20260905133921 | 27 | 216 | 0.0 | 0.0 | 0.00 | 0.00 | 0.00 | 80 | 1013.0 |
| 20260905133421 | 27 | 230 | 0.0 | 0.0 | 0.00 | 0.00 | 0.00 | 80 | 1013.1 |
| 20260905132920 | 27 | 208 | 0.0 | 0.0 | 0.00 | 0.00 | 0.00 | 81 | 1012.8 |
| 20260905132415 | 27 | 180 | 0.0 | 0.0 | 0.00 | 0.00 | 0.00 | 81 | 1013.1 |
| 20260905131910 | 26 | 261 | 0.0 | 0.0 | 0.00 | 0.00 | 0.00 | 82 | 1012.9 |
| 20260905131406 | 26 | 216 | 0.0 | 0.0 | 0.00 | 0.00 | 0.00 | 83 | 1013.2 |
| 20260905130907 | 26 | 216 | 0.0 | 0.0 | 0.00 | 0.00 | 0.00 | 84 | 1013.0 |
| 20260905130406 | 26 | 214 | 0.0 | 0.0 | 0.00 | 0.00 | 0.00 | 84 | 1013.0 |
| 20260905125901 | 26 | 212 | 0.0 | 0.0 | 0.00 | 0.00 | 0.00 | 84 | 1013.1 |
| 20260905125355 | 26 | 232 | 0.0 | 0.0 | 0.00 | 0.00 | 0.00 | 85 | 1013.0 |
| 20260905124851 | 25 | 229 | 0.0 | 0.0 | 0.00 | 0.00 | 0.00 | 85 | 1012.9 |
| 20260905124347 | 26 | 207 | 0.0 | 0.0 | 0.00 | 0.00 | 0.00 | 85 | 1013.0 |
| 20260905123842 | 25 | 215 | 0.0 | 0.0 | 0.00 | 0.00 | 0.00 | 86 | 1013.3 |
| 20260905123339 | 25 | 210 | 0.0 | 0.0 | 0.00 | 0.00 | 0.00 | 86 | 1013.3 |
| 20260905122838 | 25 | 219 | 0.0 | 0.0 | 0.00 | 0.00 | 0.00 | 86 | 1013.1 |
| 20260905122338 | 25 | 214 | 0.0 | 0.0 | 0.00 | 0.00 | 0.00 | 87 | 1013.0 |
| 20260905121833 | 25 | 239 | 0.0 | 0.0 | 0.00 | 0.00 | 0.00 | 88 | 1013.0 |
| 20260905121330 | 25 | 219 | 0.0 | 0.0 | 0.00 | 0.00 | 0.00 | 88 | 1013.2 |
| 20260905120828 | 25 | 214 | 0.0 | 0.0 | 0.00 | 0.00 | 0.00 | 87 | 1013.0 |
| 20260905120323 | 25 | 220 | 0.0 | 0.0 | 0.00 | 0.00 | 0.00 | 88 | 1013.0 |
| 20260905115818 | 25 | 218 | 0.0 | 0.0 | 0.00 | 0.00 | 0.00 | 88 | 1012.6 |
| 20260905115317 | 24 | 220 | 0.0 | 0.0 | 0.00 | 0.00 | 0.00 | 90 | 1012.8 |
| 20260905114818 | 23 | 218 | 0.0 | 0.0 | 0.00 | 0.00 | 0.00 | 92 | 1012.8 |
| 20260905114316 | 23 | 218 | 0.0 | 0.0 | 0.00 | 0.00 | 0.00 | 93 | 1012.8 |
| 20260905113816 | 23 | 217 | 0.0 | 0.0 | 0.00 | 0.00 | 0.00 | 93 | 1012.6 |
| 20260905113312 | 23 | 217 | 0.0 | 0.0 | 0.00 | 0.00 | 0.00 | 93 | 1012.8 |
| 20260905112807 | 23 | 217 | 0.0 | 0.0 | 0.00 | 0.00 | 0.00 | 93 | 1012.6 |
| 20260905112305 | 23 | 216 | 0.0 | 0.0 | 0.00 | 0.00 | 0.00 | 93 | 1012.4 |
| 20260905111756 | 23 | 220 | 0.0 | 0.0 | 0.00 | 0.00 | 0.00 | 93 | 1012.3 |
| 20260905111251 | 23 | 218 | 0.0 | 0.0 | 0.00 | 0.00 | 0.00 | 93 | 1012.2 |
| 20260905110750 | 23 | 216 | 0.0 | 0.0 | 0.00 | 0.00 | 0.00 | 93 | 1012.0 |
| 20260905110244 | 23 | 216 | 0.0 | 0.0 | 0.00 | 0.00 | 0.00 | 93 | 1012.0 |
| 20260905105740 | 23 | 219 | 0.0 | 0.0 | 0.00 | 0.00 | 0.00 | 93 | 1012.0 |
| 20260905105239 | 23 | 218 | 0.0 | 0.0 | 0.00 | 0.00 | 0.00 | 93 | 1012.1 |
| 20260905104734 | 23 | 218 | 0.0 | 0.0 | 0.00 | 0.00 | 0.00 | 92 | 1011.8 |
| 20260905104230 | 23 | 218 | 0.0 | 0.0 | 0.00 | 0.00 | 0.00 | 92 | 1011.7 |
| 20260905103725 | 23 | 219 | 0.0 | 0.0 | 0.00 | 0.00 | 0.00 | 92 | 1011.6 |
| 20260905103221 | 23 | 220 | 0.0 | 0.0 | 0.00 | 0.00 | 0.00 | 92 | 1011.7 |
| 20260905102716 | 23 | 220 | 0.0 | 0.0 | 0.00 | 0.00 | 0.00 | 92 | 1011.6 |
| 20260905102213 | 23 | 217 | 0.0 | 0.0 | 0.00 | 0.00 | 0.00 | 92 | 1011.6 |
| 20260905101711 | 23 | 218 | 0.0 | 0.0 | 0.00 | 0.00 | 0.00 | 92 | 1011.5 |
| 20260905101210 | 23 | 218 | 0.0 | 0.0 | 0.00 | 0.00 | 0.00 | 92 | 1011.5 |
| 20260905100706 | 23 | 217 | 0.0 | 0.0 | 0.00 | 0.00 | 0.00 | 91 | 1011.6 |
| 20260905100201 | 23 | 217 | 0.0 | 0.0 | 0.00 | 0.00 | 0.00 | 91 | 1011.7 |
| 20260905095701 | 23 | 289 | 0.0 | 0.0 | 0.00 | 0.00 | 0.00 | 91 | 1011.4 |
| 20260905095155 | 23 | 216 | 0.0 | 0.0 | 0.00 | 0.00 | 0.00 | 91 | 1011.6 |
| 20260905094650 | 23 | 217 | 0.0 | 0.0 | 0.00 | 0.00 | 0.00 | 91 | 1011.7 |
| 20260905094149 | 23 | 216 | 0.0 | 0.0 | 0.00 | 0.00 | 0.00 | 91 | 1011.5 |
| 20260905093644 | 23 | 216 | 0.0 | 0.0 | 0.00 | 0.00 | 0.00 | 91 | 1011.4 |
| 20260905093140 | 23 | 216 | 0.0 | 0.0 | 0.00 | 0.00 | 0.00 | 91 | 1011.6 |
| 20260905092640 | 23 | 216 | 0.0 | 0.0 | 0.00 | 0.00 | 0.00 | 91 | 1011.2 |
| 20260905092137 | 23 | 216 | 0.0 | 0.0 | 0.00 | 0.00 | 0.00 | 90 | 1011.3 |
| 20260905091636 | 23 | 216 | 0.0 | 0.0 | 0.00 | 0.00 | 0.00 | 90 | 1011.5 |
| 20260905091135 | 23 | 216 | 0.0 | 0.0 | 0.00 | 0.00 | 0.00 | 90 | 1011.5 |
| 20260905090630 | 24 | 216 | 0.0 | 0.0 | 0.00 | 0.00 | 0.00 | 90 | 1011.7 |
| 20260905090126 | 24 | 218 | 0.0 | 0.0 | 0.00 | 0.00 | 0.00 | 90 | 1011.6 |
| 20260905085624 | 23 | 217 | 0.0 | 0.0 | 0.00 | 0.00 | 0.00 | 90 | 1011.7 |
| 20260905085120 | 24 | 218 | 0.0 | 0.0 | 0.00 | 0.00 | 0.00 | 90 | 1011.9 |
| 20260905084619 | 24 | 217 | 0.0 | 0.0 | 0.00 | 0.00 | 0.00 | 90 | 1011.9 |
| 20260905084114 | 24 | 217 | 0.0 | 0.0 | 0.00 | 0.00 | 0.00 | 90 | 1011.8 |
| 20260905083609 | 24 | 217 | 0.0 | 0.0 | 0.00 | 0.00 | 0.00 | 90 | 1012.0 |
| 20260905083106 | 24 | 217 | 0.0 | 0.0 | 0.00 | 0.00 | 0.00 | 89 | 1011.9 |
| 20260905082600 | 24 | 217 | 0.0 | 0.0 | 0.00 | 0.00 | 0.00 | 89 | 1011.9 |
| 20260905082056 | 24 | 217 | 0.0 | 0.0 | 0.00 | 0.00 | 0.00 | 89 | 1012.0 |
| 20260905081555 | 24 | 217 | 0.0 | 0.0 | 0.00 | 0.00 | 0.00 | 89 | 1011.9 |
| 20260905081050 | 24 | 217 | 0.0 | 0.0 | 0.00 | 0.00 | 0.00 | 89 | 1012.0 |
| 20260905080544 | 24 | 219 | 0.0 | 0.0 | 0.00 | 0.00 | 0.00 | 89 | 1012.1 |
| 20260905080039 | 24 | 219 | 0.0 | 0.0 | 0.00 | 0.00 | 0.00 | 88 | 1012.3 |
| 20260905075532 | 24 | 219 | 0.0 | 0.0 | 0.00 | 0.00 | 0.00 | 88 | 1012.3 |
| 20260905075027 | 24 | 220 | 0.0 | 0.0 | 0.00 | 0.00 | 0.00 | 88 | 1012.4 |
| 20260905074521 | 24 | 219 | 0.0 | 0.0 | 0.00 | 0.00 | 0.00 | 88 | 1012.2 |
| 20260905074017 | 24 | 224 | 0.0 | 0.0 | 0.00 | 0.00 | 0.00 | 88 | 1012.2 |
| 20260905073506 | 24 | 254 | 0.0 | 0.0 | 0.00 | 0.00 | 0.00 | 87 | 1012.3 |
| 20260905073002 | 24 | 217 | 0.0 | 0.0 | 0.00 | 0.00 | 0.00 | 87 | 1012.1 |
| 20260905072456 | 25 | 218 | 0.0 | 0.0 | 0.00 | 0.00 | 0.00 | 87 | 1012.2 |
| 20260905071951 | 25 | 218 | 0.0 | 0.0 | 0.00 | 0.00 | 0.00 | 87 | 1012.5 |
| 20260905071448 | 25 | 218 | 0.0 | 0.0 | 0.00 | 0.00 | 0.00 | 86 | 1012.3 |
| 20260905070947 | 25 | 218 | 0.0 | 0.0 | 0.00 | 0.00 | 0.00 | 86 | 1012.2 |
| 20260905070444 | 25 | 214 | 0.0 | 0.0 | 0.00 | 0.00 | 0.00 | 85 | 1012.4 |
| 20260905065938 | 25 | 214 | 0.0 | 0.0 | 0.00 | 0.00 | 0.00 | 85 | 1012.3 |
| 20260905065436 | 25 | 214 | 0.0 | 0.0 | 0.00 | 0.00 | 0.00 | 85 | 1012.5 |
| 20260905064931 | 25 | 214 | 0.0 | 0.0 | 0.00 | 0.00 | 0.00 | 84 | 1012.7 |
| 20260905064427 | 25 | 217 | 0.0 | 0.0 | 0.00 | 0.00 | 0.00 | 84 | 1012.5 |
| 20260905063927 | 25 | 217 | 0.0 | 0.0 | 0.00 | 0.00 | 0.00 | 84 | 1012.7 |
| 20260905063422 | 25 | 217 | 0.0 | 0.0 | 0.00 | 0.00 | 0.00 | 83 | 1012.9 |
| 20260905062918 | 25 | 218 | 0.0 | 0.0 | 0.00 | 0.00 | 0.00 | 83 | 1012.8 |
| 20260905062412 | 25 | 211 | 0.0 | 0.0 | 0.00 | 0.00 | 0.00 | 82 | 1012.9 |
| 20260905061907 | 25 | 211 | 0.0 | 0.0 | 0.00 | 0.00 | 0.00 | 82 | 1012.8 |
| 20260905061401 | 25 | 211 | 0.0 | 0.0 | 0.00 | 0.00 | 0.00 | 81 | 1012.9 |